Overview Statistics Trail Chart Weather Telemetry Raw packets
 

This is the latest recevied weather packets stored in our database for station/object M0HPP-13. If no packets are shown the sender has not sent any weather packets the latest 10 day(s).

<< 1 2 3 4 5 6 7 >>
Time Temp. Humidity Pressure Rain* Wind** Luminosity Snow
1788596886 13.89° C 77% 1012.7 hPa 0 mm - 145 W/m² -
1788596319 13.33° C 79% 1012.7 hPa 0 mm - 250 W/m² -
1788595686 12.78° C 81% 1012.6 hPa 0 mm - 176 W/m² -
1788595086 12.78° C 84% 1012.5 hPa 0.25 mm - 154 W/m² -
1788594486 12.22° C 86% 1012.3 hPa 0.25 mm - 130 W/m² -
1788593886 11.11° C 89% 1012.2 hPa 0.25 mm - 111 W/m² -
1788593286 10.56° C 93% 1012.1 hPa 0.25 mm - 101 W/m² -
1788592686 10° C 93% 1011.9 hPa 0.25 mm - 59 W/m² -
1788592086 10° C 92% 1011.7 hPa 0.25 mm - 27 W/m² -
1788591486 11.11° C 88% 1011.6 hPa 0.25 mm - 21 W/m² -
1788590886 10.56° C 90% 1011.4 hPa 0 mm - 55 W/m² -
1788590286 10.56° C 90% 1011.4 hPa 0 mm - 40 W/m² -
1788589686 10° C 92% 1011.3 hPa 0 mm - 32 W/m² -
1788589086 9.44° C 93% 1011 hPa 0 mm - 26 W/m² -
1788588486 9.44° C 93% 1010.9 hPa 0 mm - 21 W/m² -
1788587886 10° C 93% 1010.7 hPa 0 mm - 14 W/m² -
1788587286 9.44° C 94% 1010.5 hPa 0 mm - 10 W/m² -
1788586686 9.44° C 93% 1010.3 hPa 0 mm - 5 W/m² -
1788586086 9.44° C 94% 1010.3 hPa 0 mm - 2 W/m² -
1788585486 9.44° C 92% 1009.9 hPa 0 mm - 0 W/m² -
1788584886 9.44° C 92% 1009.6 hPa 0 mm - 0 W/m² -
1788584286 9.44° C 93% 1009.5 hPa 0 mm - 0 W/m² -
1788583708 9.44° C 93% 1009.2 hPa 0 mm - 0 W/m² -
1788583086 10° C 93% 1009.1 hPa 0 mm - 0 W/m² -
1788582486 10° C 93% 1009 hPa 0 mm - 0 W/m² -

* Rain latest hour (hover to see other rain measurements)
** Current wind speed in m/s (hover to see current wind gust speed)